| time (UTC) | temp F | wind direction | speed MPH | gust MPH | rain 1hr in | rain 24hr in | rain mn in | humidity % | barometer mb |
| 20260506185415 | 53 | 34 | 1.0 | 4.0 | 0.00 | 0.00 | 0.00 | 67 | 1010.5 |
| 20260506185008 | 53 | 41 | 1.0 | 3.0 | 0.00 | 0.00 | 0.00 | 67 | 1010.6 |
| 20260506184950 | 53 | 25 | 1.0 | 4.0 | 0.00 | 0.00 | 0.00 | 67 | 1010.5 |
| 20260506184921 | 53 | 49 | 1.0 | 3.0 | 0.00 | 0.00 | 0.00 | 67 | 1010.6 |
| 20260506184508 | 53 | 37 | 1.0 | 4.0 | 0.00 | 0.00 | 0.00 | 67 | 1010.5 |
| 20260506184136 | 53 | 55 | 1.0 | 4.0 | 0.00 | 0.00 | 0.00 | 67 | 1010.3 |
| 20260506184009 | 54 | 37 | 1.0 | 4.0 | 0.00 | 0.00 | 0.00 | 67 | 1010.5 |
| 20260506183951 | 53 | 45 | 1.0 | 4.0 | 0.00 | 0.00 | 0.00 | 67 | 1010.4 |
| 20260506183511 | 54 | 33 | 1.0 | 4.0 | 0.00 | 0.00 | 0.00 | 67 | 1010.4 |
| 20260506183030 | 54 | 32 | 1.0 | 4.0 | 0.00 | 0.00 | 0.00 | 67 | 1010.3 |
| 20260506182915 | 54 | 22 | 1.0 | 4.0 | 0.00 | 0.00 | 0.00 | 67 | 1010.3 |
| 20260506182508 | 54 | 32 | 1.0 | 4.0 | 0.00 | 0.00 | 0.00 | 67 | 1010.3 |
| 20260506182411 | 54 | 59 | 1.0 | 4.0 | 0.00 | 0.00 | 0.00 | 67 | 1010.2 |
| 20260506182009 | 54 | 23 | 1.0 | 4.0 | 0.00 | 0.00 | 0.00 | 67 | 1010.2 |
| 20260506181909 | 54 | 38 | 1.0 | 4.0 | 0.00 | 0.00 | 0.00 | 67 | 1010.1 |
| 20260506181718 | 54 | 26 | 1.0 | 3.0 | 0.00 | 0.00 | 0.00 | 67 | 1010.1 |
| 20260506181628 | 54 | 24 | 2.0 | 8.0 | 0.00 | 0.00 | 0.00 | 66 | 1009.7 |
| 20260506181557 | 54 | 26 | 1.0 | 5.0 | 0.00 | 0.00 | 0.00 | 67 | 1010.0 |
| 20260506181511 | 54 | 28 | 1.0 | 3.0 | 0.00 | 0.00 | 0.00 | 67 | 1010.1 |
| 20260506181420 | 54 | 26 | 1.0 | 3.0 | 0.00 | 0.00 | 0.00 | 67 | 1010.1 |
| 20260506181009 | 54 | 36 | 1.0 | 5.0 | 0.00 | 0.00 | 0.00 | 67 | 1010.1 |
| 20260506180738 | 54 | 46 | 2.0 | 4.0 | 0.00 | 0.00 | 0.00 | 67 | 1009.8 |
| 20260506180509 | 54 | 42 | 1.0 | 5.0 | 0.00 | 0.00 | 0.00 | 67 | 1010.0 |
| 20260506180449 | 54 | 55 | 1.0 | 5.0 | 0.00 | 0.00 | 0.00 | 66 | 1009.9 |
| 20260506180010 | 54 | 39 | 1.0 | 3.0 | 0.00 | 0.00 | 0.00 | 67 | 1009.9 |
| 20260506175509 | 54 | 40 | 2.0 | 8.0 | 0.00 | 0.00 | 0.00 | 66 | 1009.8 |
| 20260506175009 | 54 | 40 | 2.0 | 8.0 | 0.00 | 0.00 | 0.00 | 66 | 1009.7 |
| 20260506174850 | 54 | 36 | 2.0 | 8.0 | 0.00 | 0.00 | 0.00 | 66 | 1009.7 |
| 20260506174530 | 54 | 34 | 2.0 | 6.0 | 0.00 | 0.00 | 0.00 | 67 | 1009.8 |
| 20260506174348 | 54 | 69 | 2.0 | 6.0 | 0.00 | 0.00 | 0.00 | 67 | 1009.7 |
| 20260506174009 | 54 | 36 | 2.0 | 6.0 | 0.00 | 0.00 | 0.00 | 67 | 1009.7 |
| 20260506173847 | 54 | 18 | 2.0 | 6.0 | 0.00 | 0.00 | 0.00 | 67 | 1009.7 |
| 20260506173554 | 54 | 43 | 4.0 | 9.0 | 0.00 | 0.00 | 0.00 | 67 | 1009.5 |
| 20260506173508 | 54 | 30 | 3.0 | 7.0 | 0.00 | 0.00 | 0.00 | 67 | 1009.6 |
| 20260506173420 | 54 | 44 | 3.0 | 7.0 | 0.00 | 0.00 | 0.00 | 67 | 1009.6 |
| 20260506173009 | 54 | 27 | 3.0 | 7.0 | 0.00 | 0.00 | 0.00 | 67 | 1009.6 |
| 20260506172930 | 54 | 25 | 4.0 | 9.0 | 0.00 | 0.00 | 0.00 | 67 | 1009.5 |
| 20260506172854 | 54 | 26 | 3.0 | 7.0 | 0.00 | 0.00 | 0.00 | 67 | 1009.6 |
| 20260506172508 | 54 | 26 | 4.0 | 9.0 | 0.00 | 0.00 | 0.00 | 67 | 1009.5 |
| 20260506172008 | 54 | 27 | 4.0 | 9.0 | 0.00 | 0.00 | 0.00 | 67 | 1009.6 |
| 20260506171529 | 54 | 24 | 4.0 | 9.0 | 0.00 | 0.00 | 0.00 | 67 | 1009.6 |
| 20260506171339 | 54 | 35 | 4.0 | 9.0 | 0.00 | 0.00 | 0.00 | 67 | 1009.5 |
| 20260506171009 | 54 | 28 | 4.0 | 8.0 | 0.00 | 0.00 | 0.00 | 67 | 1009.5 |
| 20260506170842 | 54 | 30 | 4.0 | 9.0 | 0.00 | 0.00 | 0.00 | 67 | 1009.4 |
| 20260506170529 | 54 | 30 | 4.0 | 12.0 | 0.00 | 0.00 | 0.00 | 67 | 1009.4 |
| 20260506170336 | 54 | 22 | 5.0 | 12.0 | 0.00 | 0.00 | 0.00 | 67 | 1009.4 |
| 20260506170009 | 54 | 22 | 5.0 | 12.0 | 0.00 | 0.00 | 0.00 | 67 | 1009.4 |
| 20260506165843 | 54 | 15 | 5.0 | 12.0 | 0.00 | 0.00 | 0.00 | 68 | 1009.3 |
| 20260506165508 | 54 | 16 | 3.0 | 9.0 | 0.00 | 0.00 | 0.00 | 68 | 1009.3 |
| 20260506165338 | 54 | 355 | 3.0 | 8.0 | 0.00 | 0.00 | 0.00 | 69 | 1009.3 |
| 20260506165009 | 54 | 18 | 3.0 | 8.0 | 0.00 | 0.00 | 0.00 | 69 | 1009.3 |
| 20260506164834 | 54 | 16 | 3.0 | 7.0 | 0.00 | 0.00 | 0.00 | 70 | 1009.2 |
| 20260506164508 | 54 | 19 | 2.0 | 7.0 | 0.00 | 0.00 | 0.00 | 70 | 1009.3 |
| 20260506164336 | 54 | 355 | 3.0 | 7.0 | 0.00 | 0.00 | 0.00 | 70 | 1009.3 |
| 20260506164009 | 54 | 16 | 3.0 | 8.0 | 0.00 | 0.00 | 0.00 | 70 | 1009.3 |
| 20260506163837 | 54 | 13 | 3.0 | 8.0 | 0.00 | 0.00 | 0.00 | 70 | 1009.3 |
| 20260506163508 | 54 | 16 | 4.0 | 8.0 | 0.00 | 0.00 | 0.00 | 70 | 1009.4 |
| 20260506163330 | 54 | 36 | 4.0 | 9.0 | 0.00 | 0.00 | 0.00 | 69 | 1009.4 |
| 20260506163010 | 54 | 24 | 4.0 | 12.0 | 0.00 | 0.00 | 0.00 | 69 | 1009.4 |
| 20260506162833 | 54 | 346 | 5.0 | 12.0 | 0.00 | 0.00 | 0.00 | 69 | 1009.5 |
| 20260506162530 | 54 | 29 | 4.0 | 12.0 | 0.00 | 0.00 | 0.00 | 69 | 1009.5 |
| 20260506162327 | 54 | 76 | 5.0 | 12.0 | 0.00 | 0.00 | 0.00 | 69 | 1009.5 |
| 20260506162009 | 54 | 29 | 4.0 | 11.0 | 0.00 | 0.00 | 0.00 | 69 | 1009.4 |
| 20260506161837 | 54 | 32 | 4.0 | 11.0 | 0.00 | 0.00 | 0.00 | 69 | 1009.5 |
| 20260506161529 | 54 | 25 | 5.0 | 11.0 | 0.00 | 0.00 | 0.00 | 69 | 1009.5 |
| 20260506161342 | 54 | 21 | 5.0 | 11.0 | 0.00 | 0.00 | 0.00 | 69 | 1009.3 |
| 20260506161008 | 54 | 25 | 5.0 | 11.0 | 0.00 | 0.00 | 0.00 | 69 | 1009.5 |
| 20260506160833 | 54 | 337 | 6.0 | 11.0 | 0.00 | 0.00 | 0.00 | 69 | 1009.4 |
| 20260506160510 | 54 | 29 | 6.0 | 13.0 | 0.00 | 0.00 | 0.00 | 68 | 1009.5 |
| 20260506160329 | 54 | 27 | 6.0 | 13.0 | 0.00 | 0.00 | 0.00 | 68 | 1009.4 |
| 20260506160009 | 54 | 28 | 7.0 | 19.0 | 0.00 | 0.00 | 0.00 | 67 | 1009.5 |
| 20260506155926 | 55 | 22 | 4.0 | 19.0 | 0.00 | 0.00 | 0.00 | 66 | 1009.4 |
| 20260506155843 | 54 | 28 | 6.0 | 19.0 | 0.00 | 0.00 | 0.00 | 67 | 1009.5 |
| 20260506155530 | 54 | 29 | 5.0 | 19.0 | 0.00 | 0.00 | 0.00 | 66 | 1009.5 |
| 20260506155009 | 55 | 30 | 4.0 | 11.0 | 0.00 | 0.00 | 0.00 | 66 | 1009.4 |
| 20260506154829 | 55 | 32 | 4.0 | 10.0 | 0.00 | 0.00 | 0.00 | 66 | 1009.4 |
| 20260506154508 | 55 | 26 | 5.0 | 11.0 | 0.00 | 0.00 | 0.00 | 65 | 1009.4 |
| 20260506154326 | 55 | 20 | 5.0 | 11.0 | 0.00 | 0.00 | 0.00 | 65 | 1009.3 |
| 20260506154030 | 55 | 27 | 6.0 | 11.0 | 0.00 | 0.00 | 0.00 | 64 | 1009.4 |
| 20260506153827 | 55 | 40 | 6.0 | 11.0 | 0.00 | 0.00 | 0.00 | 64 | 1009.4 |
| 20260506153508 | 55 | 22 | 6.0 | 11.0 | 0.00 | 0.00 | 0.00 | 64 | 1009.4 |
| 20260506153330 | 55 | 18 | 6.0 | 11.0 | 0.00 | 0.00 | 0.00 | 64 | 1009.4 |
| 20260506153030 | 55 | 18 | 6.0 | 11.0 | 0.00 | 0.00 | 0.00 | 63 | 1009.3 |
| 20260506152830 | 55 | 355 | 5.0 | 11.0 | 0.00 | 0.00 | 0.00 | 62 | 1009.4 |
| 20260506152509 | 55 | 26 | 5.0 | 11.0 | 0.00 | 0.00 | 0.00 | 62 | 1009.4 |
| 20260506152451 | 55 | 24 | 5.0 | 11.0 | 0.00 | 0.00 | 0.00 | 61 | 1009.2 |
| 20260506152352 | 55 | 11 | 5.0 | 11.0 | 0.00 | 0.00 | 0.00 | 62 | 1009.3 |
| 20260506152008 | 55 | 27 | 5.0 | 11.0 | 0.00 | 0.00 | 0.00 | 61 | 1009.2 |
| 20260506151825 | 55 | 65 | 5.0 | 11.0 | 0.00 | 0.00 | 0.00 | 61 | 1009.2 |
| 20260506151509 | 55 | 23 | 5.0 | 11.0 | 0.00 | 0.00 | 0.00 | 61 | 1009.3 |
| 20260506151008 | 55 | 27 | 5.0 | 11.0 | 0.00 | 0.00 | 0.00 | 61 | 1009.2 |
| 20260506150818 | 55 | 12 | 4.0 | 10.0 | 0.00 | 0.00 | 0.00 | 61 | 1009.2 |
| 20260506150508 | 55 | 28 | 4.0 | 9.0 | 0.00 | 0.00 | 0.00 | 61 | 1009.1 |
| 20260506150319 | 56 | 28 | 4.0 | 9.0 | 0.00 | 0.00 | 0.00 | 61 | 1009.2 |
| 20260506150009 | 56 | 26 | 4.0 | 11.0 | 0.00 | 0.00 | 0.00 | 61 | 1009.2 |
| 20260506145836 | 56 | 24 | 4.0 | 11.0 | 0.00 | 0.00 | 0.00 | 61 | 1009.1 |
| 20260506145510 | 56 | 27 | 4.0 | 11.0 | 0.00 | 0.00 | 0.00 | 61 | 1009.1 |
| 20260506145333 | 56 | 36 | 4.0 | 11.0 | 0.00 | 0.00 | 0.00 | 60 | 1009.2 |
| 20260506145011 | 56 | 33 | 4.0 | 11.0 | 0.00 | 0.00 | 0.00 | 60 | 1009.1 |
| 20260506144826 | 56 | 21 | 3.0 | 11.0 | 0.00 | 0.00 | 0.00 | 60 | 1009.1 |
| 20260506144510 | 56 | 32 | 4.0 | 11.0 | 0.00 | 0.00 | 0.00 | 60 | 1009.0 |
| 20260506144324 | 56 | 101 | 3.0 | 8.0 | 0.00 | 0.00 | 0.00 | 60 | 1009.1 |
| 20260506144008 | 56 | 25 | 3.0 | 8.0 | 0.00 | 0.00 | 0.00 | 60 | 1009.0 |
| 20260506143827 | 56 | 351 | 3.0 | 8.0 | 0.00 | 0.00 | 0.00 | 60 | 1009.1 |
| 20260506143509 | 56 | 25 | 3.0 | 8.0 | 0.00 | 0.00 | 0.00 | 59 | 1009.1 |
| 20260506143313 | 56 | 22 | 4.0 | 12.0 | 0.00 | 0.00 | 0.00 | 59 | 1009.1 |
| 20260506143009 | 56 | 22 | 4.0 | 12.0 | 0.00 | 0.00 | 0.00 | 59 | 1009.1 |
| 20260506142827 | 56 | 25 | 5.0 | 12.0 | 0.00 | 0.00 | 0.00 | 59 | 1008.9 |
| 20260506142529 | 56 | 23 | 4.0 | 12.0 | 0.00 | 0.00 | 0.00 | 59 | 1009.1 |
| 20260506142316 | 56 | 15 | 4.0 | 12.0 | 0.00 | 0.00 | 0.00 | 58 | 1009.0 |
| 20260506142009 | 56 | 23 | 4.0 | 12.0 | 0.00 | 0.00 | 0.00 | 58 | 1009.0 |
| 20260506141817 | 56 | 15 | 4.0 | 12.0 | 0.00 | 0.00 | 0.00 | 57 | 1008.9 |
| 20260506141508 | 56 | 19 | 4.0 | 9.0 | 0.00 | 0.00 | 0.00 | 57 | 1009.0 |
| 20260506141432 | 57 | 351 | 5.0 | 11.0 | 0.00 | 0.00 | 0.00 | 56 | 1009.0 |
| 20260506141345 | 56 | 32 | 4.0 | 9.0 | 0.00 | 0.00 | 0.00 | 57 | 1009.0 |
| 20260506141009 | 57 | 19 | 4.0 | 11.0 | 0.00 | 0.00 | 0.00 | 56 | 1008.9 |
| 20260506140511 | 57 | 23 | 5.0 | 11.0 | 0.00 | 0.00 | 0.00 | 55 | 1009.0 |
| 20260506140320 | 57 | 21 | 5.0 | 11.0 | 0.00 | 0.00 | 0.00 | 55 | 1009.0 |
| 20260506140009 | 57 | 27 | 5.0 | 13.0 | 0.00 | 0.00 | 0.00 | 55 | 1008.9 |
| 20260506135819 | 57 | 15 | 5.0 | 13.0 | 0.00 | 0.00 | 0.00 | 55 | 1008.9 |
| 20260506135508 | 58 | 26 | 5.0 | 13.0 | 0.00 | 0.00 | 0.00 | 55 | 1008.9 |
| 20260506135312 | 58 | 42 | 6.0 | 13.0 | 0.00 | 0.00 | 0.00 | 55 | 1008.8 |
| 20260506135009 | 58 | 25 | 6.0 | 11.0 | 0.00 | 0.00 | 0.00 | 55 | 1008.9 |
| 20260506134812 | 58 | 63 | 5.0 | 11.0 | 0.00 | 0.00 | 0.00 | 55 | 1008.9 |
| 20260506134509 | 58 | 27 | 5.0 | 11.0 | 0.00 | 0.00 | 0.00 | 55 | 1008.9 |
| 20260506134309 | 58 | 27 | 5.0 | 11.0 | 0.00 | 0.00 | 0.00 | 55 | 1008.8 |
| 20260506134010 | 58 | 28 | 5.0 | 11.0 | 0.00 | 0.00 | 0.00 | 55 | 1008.7 |
| 20260506133945 | 58 | 20 | 6.0 | 11.0 | 0.00 | 0.00 | 0.00 | 55 | 1008.6 |
| 20260506133833 | 58 | 25 | 5.0 | 11.0 | 0.00 | 0.00 | 0.00 | 56 | 1008.7 |
| 20260506133508 | 58 | 29 | 5.0 | 11.0 | 0.00 | 0.00 | 0.00 | 55 | 1008.7 |
| 20260506133008 | 58 | 28 | 6.0 | 14.0 | 0.00 | 0.00 | 0.00 | 55 | 1008.6 |
| 20260506132811 | 58 | 55 | 6.0 | 14.0 | 0.00 | 0.00 | 0.00 | 54 | 1008.6 |
| 20260506132508 | 58 | 31 | 6.0 | 14.0 | 0.00 | 0.00 | 0.00 | 53 | 1008.6 |
| 20260506132306 | 58 | 27 | 5.0 | 14.0 | 0.00 | 0.00 | 0.00 | 53 | 1008.6 |
| 20260506132008 | 58 | 33 | 5.0 | 13.0 | 0.00 | 0.00 | 0.00 | 53 | 1008.7 |
| 20260506131801 | 58 | 32 | 5.0 | 13.0 | 0.00 | 0.00 | 0.00 | 54 | 1008.6 |
| 20260506131508 | 58 | 35 | 5.0 | 13.0 | 0.00 | 0.00 | 0.00 | 54 | 1008.6 |
| 20260506131359 | 58 | 23 | 6.0 | 14.0 | 0.00 | 0.00 | 0.00 | 54 | 1008.5 |
| 20260506131321 | 58 | 64 | 6.0 | 13.0 | 0.00 | 0.00 | 0.00 | 54 | 1008.6 |
| 20260506131008 | 58 | 32 | 6.0 | 14.0 | 0.00 | 0.00 | 0.00 | 54 | 1008.6 |
| 20260506130617 | 58 | 355 | 5.0 | 13.0 | 0.00 | 0.00 | 0.00 | 57 | 1008.5 |
| 20260506130508 | 58 | 26 | 6.0 | 14.0 | 0.00 | 0.00 | 0.00 | 54 | 1008.6 |
| 20260506130408 | 58 | 28 | 6.0 | 15.0 | 0.00 | 0.00 | 0.00 | 54 | 1008.5 |
| 20260506130029 | 58 | 30 | 6.0 | 15.0 | 0.00 | 0.00 | 0.00 | 54 | 1008.6 |
| 20260506125836 | 58 | 5 | 6.0 | 15.0 | 0.00 | 0.00 | 0.00 | 55 | 1008.5 |
| 20260506125508 | 58 | 35 | 6.0 | 15.0 | 0.00 | 0.00 | 0.00 | 55 | 1008.5 |
| 20260506125325 | 58 | 0 | 5.0 | 12.0 | 0.00 | 0.00 | 0.00 | 56 | 1008.5 |
| 20260506125009 | 58 | 31 | 5.0 | 11.0 | 0.00 | 0.00 | 0.00 | 57 | 1008.6 |
| 20260506124640 | 58 | 30 | 6.0 | 12.0 | 0.00 | 0.00 | 0.00 | 57 | 1008.5 |
| 20260506124508 | 58 | 29 | 6.0 | 13.0 | 0.00 | 0.00 | 0.00 | 58 | 1008.5 |
| 20260506124420 | 58 | 24 | 7.0 | 13.0 | 0.00 | 0.00 | 0.00 | 58 | 1008.5 |
| 20260506124030 | 58 | 30 | 7.0 | 13.0 | 0.00 | 0.00 | 0.00 | 57 | 1008.5 |
| 20260506123930 | 58 | 0 | 6.0 | 14.0 | 0.00 | 0.00 | 0.00 | 57 | 1008.5 |
| 20260506123831 | 58 | 20 | 6.0 | 12.0 | 0.00 | 0.00 | 0.00 | 57 | 1008.5 |
| 20260506123529 | 58 | 28 | 6.0 | 12.0 | 0.00 | 0.00 | 0.00 | 57 | 1008.6 |
| 20260506123008 | 58 | 31 | 6.0 | 14.0 | 0.00 | 0.00 | 0.00 | 57 | 1008.5 |
| 20260506122508 | 58 | 34 | 6.0 | 14.0 | 0.00 | 0.00 | 0.00 | 56 | 1008.4 |
| 20260506122257 | 58 | 26 | 5.0 | 14.0 | 0.00 | 0.00 | 0.00 | 56 | 1008.3 |
| 20260506122030 | 58 | 30 | 6.0 | 14.0 | 0.00 | 0.00 | 0.00 | 58 | 1008.4 |
| 20260506121948 | 58 | 17 | 6.0 | 14.0 | 0.00 | 0.00 | 0.00 | 58 | 1008.3 |
| 20260506121820 | 58 | 46 | 6.0 | 11.0 | 0.00 | 0.00 | 0.00 | 58 | 1008.2 |
| 20260506121508 | 58 | 26 | 6.0 | 13.0 | 0.00 | 0.00 | 0.00 | 58 | 1008.3 |
| 20260506121009 | 58 | 29 | 6.0 | 14.0 | 0.00 | 0.00 | 0.00 | 58 | 1008.2 |
| 20260506120756 | 58 | 38 | 7.0 | 14.0 | 0.00 | 0.00 | 0.00 | 57 | 1008.2 |
| 20260506120508 | 58 | 33 | 7.0 | 15.0 | 0.00 | 0.00 | 0.00 | 56 | 1008.3 |
| 20260506120257 | 59 | 15 | 7.0 | 15.0 | 0.00 | 0.00 | 0.00 | 57 | 1008.4 |
| 20260506120010 | 59 | 26 | 7.0 | 15.0 | 0.00 | 0.00 | 0.00 | 57 | 1008.2 |
| 20260506115752 | 59 | 40 | 6.0 | 15.0 | 0.00 | 0.00 | 0.00 | 56 | 1008.3 |
| 20260506115508 | 59 | 20 | 6.0 | 14.0 | 0.00 | 0.00 | 0.00 | 56 | 1008.2 |
| 20260506115306 | 59 | 14 | 6.0 | 13.0 | 0.00 | 0.00 | 0.00 | 55 | 1008.2 |
| 20260506115008 | 59 | 21 | 6.0 | 13.0 | 0.00 | 0.00 | 0.00 | 56 | 1008.2 |
| 20260506114758 | 59 | 24 | 7.0 | 13.0 | 0.00 | 0.00 | 0.00 | 55 | 1008.1 |
| 20260506114529 | 59 | 28 | 7.0 | 16.0 | 0.00 | 0.00 | 0.00 | 54 | 1008.2 |
| 20260506114251 | 59 | 13 | 7.0 | 16.0 | 0.00 | 0.00 | 0.00 | 53 | 1008.2 |
| 20260506114008 | 59 | 33 | 6.0 | 16.0 | 0.00 | 0.00 | 0.00 | 52 | 1008.2 |
| 20260506113743 | 60 | 49 | 6.0 | 16.0 | 0.00 | 0.00 | 0.00 | 52 | 1008.1 |
| 20260506113510 | 60 | 26 | 6.0 | 15.0 | 0.00 | 0.00 | 0.00 | 52 | 1008.2 |
| 20260506113253 | 60 | 25 | 6.0 | 15.0 | 0.00 | 0.00 | 0.00 | 52 | 1008.1 |
| 20260506113008 | 60 | 23 | 6.0 | 15.0 | 0.00 | 0.00 | 0.00 | 52 | 1008.1 |
| 20260506112751 | 60 | 23 | 6.0 | 15.0 | 0.00 | 0.00 | 0.00 | 53 | 1008.1 |
| 20260506112528 | 60 | 23 | 6.0 | 14.0 | 0.00 | 0.00 | 0.00 | 53 | 1008.1 |
| 20260506112249 | 60 | 23 | 6.0 | 14.0 | 0.00 | 0.00 | 0.00 | 53 | 1008.1 |
| 20260506112008 | 60 | 22 | 6.0 | 14.0 | 0.00 | 0.00 | 0.00 | 52 | 1008.1 |
| 20260506111754 | 60 | 355 | 6.0 | 16.0 | 0.00 | 0.00 | 0.00 | 51 | 1008.0 |
| 20260506111508 | 60 | 29 | 6.0 | 16.0 | 0.00 | 0.00 | 0.00 | 51 | 1008.1 |
| 20260506111249 | 60 | 19 | 6.0 | 16.0 | 0.00 | 0.00 | 0.00 | 52 | 1008.0 |
| 20260506111009 | 60 | 36 | 7.0 | 16.0 | 0.00 | 0.00 | 0.00 | 51 | 1008.1 |
| 20260506110742 | 60 | 261 | 6.0 | 16.0 | 0.00 | 0.00 | 0.00 | 51 | 1008.0 |
| 20260506110544 | 60 | 49 | 7.0 | 16.0 | 0.00 | 0.00 | 0.00 | 51 | 1008.1 |
| 20260506110508 | 60 | 27 | 7.0 | 16.0 | 0.00 | 0.00 | 0.00 | 52 | 1008.1 |
| 20260506110209 | 59 | 13 | 5.0 | 12.0 | 0.00 | 0.00 | 0.00 | 58 | 1008.0 |
| 20260506110120 | 59 | 30 | 5.0 | 12.0 | 0.00 | 0.00 | 0.00 | 58 | 1008.0 |
| 20260506110008 | 60 | 23 | 7.0 | 16.0 | 0.00 | 0.00 | 0.00 | 53 | 1008.1 |
| 20260506105850 | 60 | 49 | 7.0 | 16.0 | 0.00 | 0.00 | 0.00 | 53 | 1008.0 |
| 20260506105529 | 60 | 25 | 7.0 | 16.0 | 0.00 | 0.00 | 0.00 | 54 | 1008.1 |
| 20260506105432 | 59 | 41 | 5.0 | 11.0 | 0.00 | 0.00 | 0.00 | 58 | 1008.0 |
| 20260506105325 | 60 | 78 | 6.0 | 15.0 | 0.00 | 0.00 | 0.00 | 56 | 1007.9 |
| 20260506105030 | 59 | 23 | 7.0 | 14.0 | 0.00 | 0.00 | 0.00 | 58 | 1008.0 |
| 20260506104507 | 59 | 28 | 5.0 | 12.0 | 0.00 | 0.00 | 0.00 | 57 | 1008.0 |
| 20260506104010 | 59 | 31 | 5.0 | 11.0 | 0.00 | 0.00 | 0.00 | 57 | 1008.1 |
| 20260506103653 | 58 | 5 | 7.0 | 14.0 | 0.00 | 0.00 | 0.00 | 59 | 1007.9 |
| 20260506103559 | 58 | 18 | 7.0 | 15.0 | 0.00 | 0.00 | 0.00 | 59 | 1007.9 |
| 20260506103508 | 59 | 31 | 5.0 | 11.0 | 0.00 | 0.00 | 0.00 | 57 | 1008.0 |
| 20260506103354 | 59 | 33 | 5.0 | 11.0 | 0.00 | 0.00 | 0.00 | 57 | 1007.9 |
| 20260506103008 | 59 | 32 | 5.0 | 11.0 | 0.00 | 0.00 | 0.00 | 58 | 1008.0 |
| 20260506102830 | 59 | 30 | 6.0 | 15.0 | 0.00 | 0.00 | 0.00 | 58 | 1007.8 |
| 20260506102509 | 59 | 27 | 6.0 | 15.0 | 0.00 | 0.00 | 0.00 | 59 | 1007.9 |
| 20260506102009 | 58 | 26 | 7.0 | 15.0 | 0.00 | 0.00 | 0.00 | 59 | 1008.0 |
| 20260506101508 | 58 | 27 | 6.0 | 14.0 | 0.00 | 0.00 | 0.00 | 60 | 1007.9 |
| 20260506101243 | 58 | 13 | 5.0 | 14.0 | 0.00 | 0.00 | 0.00 | 62 | 1007.9 |
| 20260506101029 | 58 | 29 | 6.0 | 14.0 | 0.00 | 0.00 | 0.00 | 62 | 1007.8 |
| 20260506100734 | 58 | 0 | 5.0 | 11.0 | 0.00 | 0.00 | 0.00 | 63 | 1007.7 |
| 20260506100508 | 57 | 26 | 6.0 | 14.0 | 0.00 | 0.00 | 0.00 | 64 | 1007.8 |
| 20260506100238 | 57 | 31 | 6.0 | 14.0 | 0.00 | 0.00 | 0.00 | 65 | 1007.8 |
| 20260506100010 | 57 | 26 | 6.0 | 14.0 | 0.00 | 0.00 | 0.00 | 66 | 1007.8 |
| 20260506095740 | 57 | 34 | 6.0 | 14.0 | 0.00 | 0.00 | 0.00 | 66 | 1007.8 |
| 20260506095508 | 57 | 27 | 5.0 | 11.0 | 0.00 | 0.00 | 0.00 | 66 | 1007.8 |
| 20260506095240 | 57 | 42 | 4.0 | 10.0 | 0.00 | 0.00 | 0.00 | 67 | 1007.7 |
| 20260506095029 | 57 | 16 | 4.0 | 10.0 | 0.00 | 0.00 | 0.00 | 67 | 1007.8 |
| 20260506094736 | 57 | 61 | 4.0 | 10.0 | 0.00 | 0.00 | 0.00 | 68 | 1007.8 |
| 20260506094542 | 57 | 20 | 4.0 | 12.0 | 0.00 | 0.00 | 0.00 | 68 | 1007.7 |
| 20260506094531 | 57 | 5 | 5.0 | 10.0 | 0.00 | 0.00 | 0.00 | 68 | 1007.7 |
| 20260506094511 | 57 | 21 | 4.0 | 10.0 | 0.00 | 0.00 | 0.00 | 68 | 1007.8 |
| 20260506094333 | 57 | 348 | 5.0 | 10.0 | 0.00 | 0.00 | 0.00 | 68 | 1007.7 |
| 20260506094029 | 57 | 32 | 4.0 | 10.0 | 0.00 | 0.00 | 0.00 | 68 | 1007.8 |
| 20260506093508 | 57 | 32 | 4.0 | 10.0 | 0.00 | 0.00 | 0.00 | 69 | 1007.7 |
| 20260506093235 | 56 | 68 | 5.0 | 12.0 | 0.00 | 0.00 | 0.00 | 68 | 1007.7 |
| 20260506093009 | 57 | 25 | 4.0 | 12.0 | 0.00 | 0.00 | 0.00 | 68 | 1007.7 |
| 20260506092508 | 57 | 21 | 5.0 | 12.0 | 0.00 | 0.00 | 0.00 | 68 | 1007.8 |
| 20260506092237 | 56 | 5 | 5.0 | 12.0 | 0.00 | 0.00 | 0.00 | 69 | 1007.6 |
| 20260506092009 | 56 | 17 | 6.0 | 14.0 | 0.00 | 0.00 | 0.00 | 69 | 1007.7 |
| 20260506091733 | 56 | 18 | 7.0 | 14.0 | 0.00 | 0.00 | 0.00 | 68 | 1007.6 |
| 20260506091508 | 56 | 10 | 6.0 | 14.0 | 0.00 | 0.00 | 0.00 | 69 | 1007.7 |
| 20260506091233 | 56 | 22 | 6.0 | 14.0 | 0.00 | 0.00 | 0.00 | 70 | 1007.6 |
| 20260506091008 | 56 | 14 | 5.0 | 13.0 | 0.00 | 0.00 | 0.00 | 70 | 1007.6 |
| 20260506090930 | 56 | 20 | 6.0 | 14.0 | 0.00 | 0.00 | 0.00 | 70 | 1007.5 |
| 20260506090814 | 56 | 20 | 5.0 | 13.0 | 0.00 | 0.00 | 0.00 | 70 | 1007.6 |
| 20260506090507 | 56 | 25 | 5.0 | 12.0 | 0.00 | 0.00 | 0.00 | 70 | 1007.6 |
| 20260506090008 | 56 | 23 | 6.0 | 14.0 | 0.00 | 0.00 | 0.00 | 70 | 1007.6 |
| 20260506085738 | 56 | 33 | 5.0 | 14.0 | 0.00 | 0.00 | 0.00 | 70 | 1007.5 |
| 20260506085508 | 57 | 18 | 5.0 | 14.0 | 0.00 | 0.00 | 0.00 | 71 | 1007.5 |
| 20260506085233 | 57 | 21 | 4.0 | 13.0 | 0.00 | 0.00 | 0.00 | 72 | 1007.4 |
| 20260506085008 | 56 | 13 | 5.0 | 13.0 | 0.00 | 0.00 | 0.00 | 72 | 1007.5 |
| 20260506084732 | 56 | 23 | 5.0 | 13.0 | 0.00 | 0.00 | 0.00 | 73 | 1007.5 |
| 20260506084529 | 56 | 15 | 5.0 | 13.0 | 0.00 | 0.00 | 0.00 | 73 | 1007.4 |
| 20260506084226 | 56 | 15 | 7.0 | 13.0 | 0.00 | 0.00 | 0.00 | 73 | 1007.4 |
| 20260506084008 | 56 | 18 | 6.0 | 13.0 | 0.00 | 0.00 | 0.00 | 74 | 1007.5 |
| 20260506083723 | 56 | 31 | 6.0 | 13.0 | 0.00 | 0.00 | 0.00 | 74 | 1007.4 |
| 20260506083508 | 56 | 23 | 5.0 | 13.0 | 0.00 | 0.00 | 0.00 | 74 | 1007.5 |
| 20260506083225 | 55 | 5 | 4.0 | 13.0 | 0.00 | 0.00 | 0.00 | 75 | 1007.4 |
| 20260506083008 | 55 | 29 | 4.0 | 10.0 | 0.00 | 0.00 | 0.00 | 76 | 1007.4 |
| 20260506082723 | 55 | 45 | 4.0 | 10.0 | 0.00 | 0.00 | 0.00 | 76 | 1007.3 |
| 20260506082529 | 55 | 28 | 4.0 | 9.0 | 0.00 | 0.00 | 0.00 | 77 | 1007.4 |
| 20260506082221 | 54 | 9 | 3.0 | 11.0 | 0.00 | 0.00 | 0.00 | 79 | 1007.3 |
| 20260506082009 | 54 | 21 | 3.0 | 11.0 | 0.00 | 0.00 | 0.00 | 80 | 1007.3 |
| 20260506081822 | 53 | 327 | 3.0 | 6.0 | 0.00 | 0.00 | 0.00 | 82 | 1007.4 |
| 20260506081740 | 54 | 25 | 3.0 | 11.0 | 0.00 | 0.00 | 0.00 | 81 | 1007.3 |
| 20260506081508 | 54 | 15 | 3.0 | 11.0 | 0.00 | 0.00 | 0.00 | 82 | 1007.4 |
| 20260506081008 | 53 | 15 | 3.0 | 6.0 | 0.00 | 0.00 | 0.00 | 82 | 1007.4 |
| 20260506080730 | 53 | 9 | 3.0 | 5.0 | 0.00 | 0.00 | 0.00 | 83 | 1007.4 |
| 20260506080508 | 53 | 16 | 3.0 | 9.0 | 0.00 | 0.00 | 0.00 | 83 | 1007.4 |
| 20260506080221 | 53 | 0 | 3.0 | 9.0 | 0.00 | 0.00 | 0.00 | 83 | 1007.3 |
| 20260506073508 | 52 | 19 | 4.0 | 11.0 | 0.00 | 0.00 | 0.00 | 86 | 1007.3 |
| 20260506073208 | 51 | 37 | 4.0 | 11.0 | 0.00 | 0.00 | 0.00 | 86 | 1007.3 |
| 20260506073008 | 51 | 21 | 4.0 | 11.0 | 0.00 | 0.00 | 0.00 | 86 | 1007.3 |
| 20260506072713 | 51 | 344 | 4.0 | 11.0 | 0.00 | 0.00 | 0.00 | 87 | 1007.3 |
| 20260506072509 | 51 | 21 | 4.0 | 11.0 | 0.00 | 0.00 | 0.00 | 87 | 1007.3 |
| 20260506072228 | 51 | 30 | 4.0 | 11.0 | 0.00 | 0.00 | 0.00 | 87 | 1007.3 |
| 20260506072009 | 51 | 16 | 4.0 | 10.0 | 0.00 | 0.00 | 0.00 | 87 | 1007.3 |
| 20260506071716 | 51 | 26 | 3.0 | 9.0 | 0.00 | 0.00 | 0.00 | 88 | 1007.3 |
| 20260506071508 | 51 | 18 | 4.0 | 8.0 | 0.00 | 0.00 | 0.00 | 88 | 1007.3 |
| 20260506071212 | 51 | 67 | 3.0 | 9.0 | 0.00 | 0.00 | 0.00 | 88 | 1007.3 |
| 20260506071029 | 51 | 23 | 3.0 | 9.0 | 0.00 | 0.00 | 0.00 | 89 | 1007.4 |
| 20260506070912 | 51 | 0 | 3.0 | 8.0 | 0.00 | 0.00 | 0.00 | 90 | 1007.2 |
| 20260506070831 | 51 | 19 | 2.0 | 6.0 | 0.00 | 0.00 | 0.00 | 90 | 1007.2 |
| 20260506070740 | 51 | 39 | 3.0 | 9.0 | 0.00 | 0.00 | 0.00 | 89 | 1007.3 |
| 20260506070507 | 51 | 15 | 3.0 | 9.0 | 0.00 | 0.00 | 0.00 | 89 | 1007.3 |
| 20260506062507 | 50 | 5 | 2.0 | 5.0 | 0.00 | 0.00 | 0.00 | 91 | 1007.2 |
| 20260506062008 | 49 | 358 | 2.0 | 8.0 | 0.00 | 0.00 | 0.00 | 91 | 1007.1 |
| 20260506061707 | 49 | 348 | 2.0 | 8.0 | 0.00 | 0.00 | 0.00 | 91 | 1007.0 |
| 20260506061508 | 49 | 5 | 2.0 | 8.0 | 0.00 | 0.00 | 0.00 | 91 | 1007.0 |
| 20260506061204 | 49 | 0 | 2.0 | 5.0 | 0.00 | 0.00 | 0.00 | 91 | 1007.0 |
| 20260506061008 | 49 | 12 | 2.0 | 5.0 | 0.00 | 0.00 | 0.00 | 91 | 1007.0 |
| 20260506060711 | 49 | 26 | 2.0 | 6.0 | 0.00 | 0.00 | 0.00 | 91 | 1006.9 |
| 20260506060507 | 49 | 14 | 2.0 | 6.0 | 0.00 | 0.00 | 0.00 | 91 | 1006.9 |
| 20260506060201 | 49 | 19 | 2.0 | 6.0 | 0.00 | 0.00 | 0.00 | 91 | 1007.0 |
| 20260506051144 | 49 | 14 | 3.0 | 6.0 | 0.00 | 0.00 | 0.00 | 92 | 1007.0 |
| 20260506051029 | 48 | 18 | 3.0 | 7.0 | 0.00 | 0.00 | 0.00 | 92 | 1007.1 |
| 20260506050643 | 48 | 17 | 2.0 | 7.0 | 0.00 | 0.00 | 0.00 | 92 | 1007.0 |
| 20260506050508 | 48 | 21 | 3.0 | 7.0 | 0.00 | 0.00 | 0.00 | 92 | 1007.0 |
| 20260506050140 | 49 | 5 | 2.0 | 7.0 | 0.00 | 0.00 | 0.00 | 92 | 1007.0 |
| 20260506045135 | 48 | 28 | 3.0 | 8.0 | 0.00 | 0.00 | 0.00 | 92 | 1007.1 |
| 20260506045008 | 48 | 15 | 3.0 | 8.0 | 0.00 | 0.00 | 0.00 | 92 | 1007.1 |
| 20260506044643 | 49 | 324 | 3.0 | 8.0 | 0.00 | 0.00 | 0.00 | 92 | 1007.2 |
| 20260506044508 | 48 | 13 | 3.0 | 8.0 | 0.00 | 0.00 | 0.00 | 92 | 1007.2 |
| 20260506044132 | 49 | 15 | 3.0 | 7.0 | 0.00 | 0.00 | 0.00 | 92 | 1007.2 |
| 20260506044008 | 48 | 16 | 2.0 | 6.0 | 0.00 | 0.00 | 0.00 | 92 | 1007.2 |
| 20260506043811 | 49 | 340 | 2.0 | 7.0 | 0.00 | 0.00 | 0.00 | 91 | 1007.1 |
| 20260506043650 | 49 | 350 | 2.0 | 6.0 | 0.00 | 0.00 | 0.00 | 92 | 1007.2 |
| 20260506043529 | 48 | 13 | 2.0 | 6.0 | 0.00 | 0.00 | 0.00 | 91 | 1007.3 |
| 20260506043008 | 48 | 15 | 2.0 | 7.0 | 0.00 | 0.00 | 0.00 | 91 | 1007.1 |
| 20260506042649 | 49 | 28 | 3.0 | 7.0 | 0.00 | 0.00 | 0.00 | 91 | 1007.1 |
| 20260506042507 | 48 | 23 | 3.0 | 7.0 | 0.00 | 0.00 | 0.00 | 91 | 1007.2 |
| 20260506042136 | 49 | 13 | 3.0 | 7.0 | 0.00 | 0.00 | 0.00 | 91 | 1007.1 |
| 20260506042009 | 48 | 15 | 3.0 | 7.0 | 0.00 | 0.00 | 0.00 | 91 | 1007.2 |
| 20260506041739 | 49 | 0 | 3.0 | 6.0 | 0.00 | 0.00 | 0.00 | 91 | 1007.1 |
| 20260506041647 | 49 | 19 | 3.0 | 6.0 | 0.00 | 0.00 | 0.00 | 91 | 1007.1 |
| 20260506041528 | 48 | 7 | 2.0 | 6.0 | 0.00 | 0.00 | 0.00 | 91 | 1007.1 |
| 20260506041009 | 48 | 12 | 2.0 | 5.0 | 0.00 | 0.00 | 0.00 | 91 | 1007.1 |
| 20260506040632 | 49 | 11 | 2.0 | 6.0 | 0.00 | 0.00 | 0.00 | 91 | 1007.1 |
| 20260506040507 | 48 | 11 | 2.0 | 6.0 | 0.00 | 0.00 | 0.00 | 91 | 1007.0 |
| 20260506040143 | 49 | 38 | 2.0 | 6.0 | 0.00 | 0.00 | 0.00 | 91 | 1007.1 |
| 20260506040008 | 49 | 9 | 2.0 | 6.0 | 0.00 | 0.00 | 0.00 | 91 | 1007.1 |
| 20260506035635 | 49 | 348 | 2.0 | 5.0 | 0.00 | 0.00 | 0.00 | 91 | 1007.1 |
| 20260506035507 | 49 | 10 | 2.0 | 5.0 | 0.00 | 0.00 | 0.00 | 91 | 1007.2 |
| 20260506035135 | 49 | 45 | 1.0 | 5.0 | 0.00 | 0.00 | 0.00 | 91 | 1007.2 |
| 20260506035007 | 49 | 11 | 1.0 | 5.0 | 0.00 | 0.00 | 0.00 | 91 | 1007.2 |
| 20260506034637 | 49 | 28 | 2.0 | 4.0 | 0.00 | 0.00 | 0.00 | 91 | 1007.3 |
| 20260506034508 | 49 | 13 | 2.0 | 5.0 | 0.00 | 0.00 | 0.00 | 90 | 1007.2 |
| 20260506034133 | 49 | 9 | 2.0 | 5.0 | 0.00 | 0.00 | 0.00 | 90 | 1007.2 |
| 20260506034008 | 49 | 9 | 2.0 | 5.0 | 0.00 | 0.00 | 0.00 | 90 | 1007.3 |
| 20260506033632 | 49 | 348 | 2.0 | 5.0 | 0.00 | 0.00 | 0.00 | 90 | 1007.3 |
| 20260506033507 | 49 | 13 | 2.0 | 4.0 | 0.00 | 0.00 | 0.00 | 90 | 1007.3 |
| 20260506033133 | 49 | 351 | 2.0 | 8.0 | 0.00 | 0.00 | 0.00 | 90 | 1007.4 |
| 20260506033008 | 49 | 18 | 3.0 | 8.0 | 0.00 | 0.00 | 0.00 | 90 | 1007.3 |
| 20260506032826 | 49 | 20 | 3.0 | 7.0 | 0.00 | 0.00 | 0.00 | 90 | 1007.3 |
| 20260506032704 | 49 | 13 | 3.0 | 8.0 | 0.00 | 0.00 | 0.00 | 90 | 1007.3 |
| 20260506032528 | 49 | 19 | 3.0 | 8.0 | 0.00 | 0.00 | 0.00 | 90 | 1007.3 |
| 20260506032008 | 49 | 20 | 3.0 | 7.0 | 0.00 | 0.00 | 0.00 | 90 | 1007.3 |
| 20260506031634 | 49 | 17 | 4.0 | 8.0 | 0.00 | 0.00 | 0.00 | 90 | 1007.3 |
| 20260506031508 | 49 | 17 | 4.0 | 8.0 | 0.00 | 0.00 | 0.00 | 90 | 1007.3 |
| 20260506031151 | 49 | 21 | 4.0 | 9.0 | 0.00 | 0.00 | 0.00 | 89 | 1007.2 |
| 20260506031129 | 49 | 27 | 4.0 | 9.0 | 0.00 | 0.00 | 0.00 | 89 | 1007.3 |
| 20260506031008 | 49 | 16 | 4.0 | 9.0 | 0.00 | 0.00 | 0.00 | 89 | 1007.4 |
| 20260506030508 | 49 | 16 | 4.0 | 9.0 | 0.00 | 0.00 | 0.00 | 89 | 1007.3 |
| 20260506030132 | 49 | 17 | 3.0 | 9.0 | 0.00 | 0.00 | 0.00 | 89 | 1007.3 |
| 20260506030009 | 49 | 16 | 3.0 | 5.0 | 0.00 | 0.00 | 0.00 | 89 | 1007.5 |
| 20260506025645 | 49 | 11 | 3.0 | 7.0 | 0.00 | 0.00 | 0.00 | 88 | 1007.5 |
| 20260506025627 | 49 | 28 | 3.0 | 7.0 | 0.00 | 0.00 | 0.00 | 89 | 1007.4 |
| 20260506025507 | 49 | 16 | 3.0 | 7.0 | 0.00 | 0.00 | 0.00 | 89 | 1007.5 |
| 20260506025007 | 49 | 17 | 3.0 | 7.0 | 0.00 | 0.00 | 0.00 | 88 | 1007.5 |
| 20260506024614 | 49 | 0 | 3.0 | 8.0 | 0.00 | 0.00 | 0.00 | 88 | 1007.5 |
| 20260506024507 | 49 | 17 | 3.0 | 10.0 | 0.00 | 0.00 | 0.00 | 88 | 1007.6 |
| 20260506024115 | 49 | 26 | 3.0 | 10.0 | 0.00 | 0.00 | 0.00 | 88 | 1007.5 |
| 20260506024008 | 49 | 16 | 3.0 | 10.0 | 0.00 | 0.00 | 0.00 | 88 | 1007.6 |
| 20260506023617 | 49 | 37 | 3.0 | 10.0 | 0.00 | 0.01 | 0.00 | 87 | 1007.5 |
| 20260506023528 | 50 | 19 | 3.0 | 10.0 | 0.00 | 0.01 | 0.00 | 87 | 1007.6 |
| 20260506023119 | 50 | 44 | 3.0 | 8.0 | 0.00 | 0.01 | 0.00 | 87 | 1007.5 |
| 20260506023008 | 50 | 17 | 3.0 | 8.0 | 0.00 | 0.01 | 0.00 | 87 | 1007.7 |
| 20260506022620 | 50 | 11 | 3.0 | 8.0 | 0.00 | 0.01 | 0.00 | 87 | 1007.6 |
| 20260506022509 | 50 | 19 | 3.0 | 7.0 | 0.00 | 0.01 | 0.00 | 86 | 1007.6 |
| 20260506022120 | 50 | 36 | 3.0 | 8.0 | 0.00 | 0.01 | 0.00 | 86 | 1007.7 |
| 20260506022029 | 50 | 22 | 3.0 | 10.0 | 0.00 | 0.01 | 0.00 | 86 | 1007.7 |
| 20260506021628 | 50 | 16 | 4.0 | 10.0 | 0.00 | 0.02 | 0.00 | 86 | 1007.6 |
| 20260506021508 | 50 | 20 | 4.0 | 10.0 | 0.00 | 0.02 | 0.00 | 85 | 1007.7 |
| 20260506021122 | 50 | 24 | 5.0 | 10.0 | 0.00 | 0.02 | 0.00 | 85 | 1007.5 |
| 20260506021008 | 50 | 18 | 4.0 | 9.0 | 0.00 | 0.03 | 0.00 | 85 | 1007.7 |
| 20260506020623 | 50 | 30 | 5.0 | 9.0 | 0.00 | 0.03 | 0.00 | 85 | 1007.6 |
| 20260506020509 | 50 | 18 | 5.0 | 9.0 | 0.00 | 0.03 | 0.00 | 84 | 1007.6 |
| 20260506020132 | 50 | 346 | 4.0 | 9.0 | 0.00 | 0.03 | 0.00 | 84 | 1007.5 |
| 20260506020008 | 50 | 21 | 4.0 | 9.0 | 0.00 | 0.03 | 0.00 | 84 | 1007.5 |
| 20260506015611 | 50 | 29 | 4.0 | 9.0 | 0.00 | 0.03 | 0.00 | 84 | 1007.6 |
| 20260506015529 | 50 | 27 | 4.0 | 9.0 | 0.00 | 0.03 | 0.00 | 84 | 1007.6 |
| 20260506015114 | 50 | 32 | 4.0 | 11.0 | 0.00 | 0.03 | 0.00 | 84 | 1007.5 |
| 20260506015007 | 50 | 29 | 4.0 | 11.0 | 0.00 | 0.03 | 0.00 | 84 | 1007.5 |
| 20260506014709 | 50 | 15 | 5.0 | 14.0 | 0.00 | 0.03 | 0.00 | 83 | 1007.4 |
| 20260506014623 | 50 | 17 | 4.0 | 11.0 | 0.00 | 0.03 | 0.00 | 83 | 1007.5 |
| 20260506014528 | 50 | 22 | 4.0 | 11.0 | 0.00 | 0.03 | 0.00 | 83 | 1007.6 |
| 20260506014029 | 50 | 12 | 5.0 | 14.0 | 0.00 | 0.03 | 0.00 | 83 | 1007.5 |
| 20260506013616 | 50 | 28 | 5.0 | 14.0 | 0.00 | 0.03 | 0.00 | 83 | 1007.6 |
| 20260506013507 | 50 | 12 | 5.0 | 14.0 | 0.00 | 0.03 | 0.00 | 83 | 1007.6 |
| 20260506013114 | 50 | 14 | 5.0 | 12.0 | 0.00 | 0.03 | 0.00 | 83 | 1007.5 |
| 20260506013009 | 50 | 15 | 5.0 | 12.0 | 0.00 | 0.03 | 0.00 | 83 | 1007.5 |
| 20260506012607 | 50 | 5 | 6.0 | 12.0 | 0.00 | 0.03 | 0.00 | 83 | 1007.5 |
| 20260506012507 | 50 | 18 | 6.0 | 13.0 | 0.00 | 0.03 | 0.00 | 83 | 1007.5 |
| 20260506012113 | 50 | 355 | 7.0 | 13.0 | 0.00 | 0.03 | 0.00 | 83 | 1007.4 |
| 20260506012007 | 50 | 20 | 7.0 | 13.0 | 0.00 | 0.03 | 0.00 | 83 | 1007.5 |
| 20260506011608 | 50 | 26 | 5.0 | 13.0 | 0.00 | 0.03 | 0.00 | 83 | 1007.6 |
| 20260506011509 | 50 | 21 | 5.0 | 12.0 | 0.00 | 0.03 | 0.00 | 83 | 1007.6 |
| 20260506011101 | 50 | 19 | 4.0 | 12.0 | 0.00 | 0.03 | 0.00 | 83 | 1007.6 |
| 20260506011010 | 50 | 17 | 3.0 | 11.0 | 0.00 | 0.03 | 0.00 | 83 | 1007.6 |
| 20260506010611 | 50 | 20 | 4.0 | 8.0 | 0.00 | 0.03 | 0.00 | 83 | 1007.6 |
| 20260506010507 | 50 | 13 | 4.0 | 8.0 | 0.00 | 0.03 | 0.00 | 83 | 1007.7 |
| 20260506010125 | 50 | 29 | 4.0 | 12.0 | 0.00 | 0.03 | 0.00 | 83 | 1007.7 |
| 20260506010008 | 50 | 14 | 5.0 | 12.0 | 0.00 | 0.03 | 0.00 | 83 | 1007.7 |
| 20260506005601 | 50 | 23 | 5.0 | 12.0 | 0.00 | 0.03 | 0.00 | 82 | 1007.7 |
| 20260506005507 | 50 | 17 | 5.0 | 12.0 | 0.00 | 0.03 | 0.00 | 82 | 1007.8 |
| 20260506005228 | 50 | 0 | 5.0 | 10.0 | 0.00 | 0.03 | 0.00 | 82 | 1007.7 |
| 20260506005121 | 50 | 18 | 5.0 | 12.0 | 0.00 | 0.03 | 0.00 | 82 | 1007.7 |
| 20260506005008 | 50 | 19 | 5.0 | 12.0 | 0.00 | 0.03 | 0.00 | 82 | 1007.8 |
| 20260506004507 | 50 | 19 | 5.0 | 10.0 | 0.00 | 0.03 | 0.00 | 82 | 1007.8 |
| 20260506004056 | 50 | 5 | 5.0 | 11.0 | 0.00 | 0.03 | 0.00 | 82 | 1007.8 |
| 20260506004008 | 50 | 19 | 5.0 | 11.0 | 0.00 | 0.03 | 0.00 | 82 | 1007.9 |
| 20260506003603 | 50 | 335 | 4.0 | 11.0 | 0.00 | 0.03 | 0.00 | 82 | 1007.8 |
| 20260506003508 | 50 | 16 | 5.0 | 11.0 | 0.00 | 0.03 | 0.00 | 82 | 1007.9 |
| 20260506003052 | 50 | 5 | 5.0 | 11.0 | 0.00 | 0.03 | 0.00 | 81 | 1008.0 |
| 20260506003009 | 50 | 19 | 5.0 | 11.0 | 0.00 | 0.03 | 0.00 | 81 | 1008.1 |
| 20260506002554 | 51 | 46 | 5.0 | 11.0 | 0.00 | 0.03 | 0.00 | 81 | 1007.9 |
| 20260506002507 | 50 | 22 | 5.0 | 11.0 | 0.00 | 0.03 | 0.00 | 81 | 1008.1 |
| 20260506002058 | 51 | 27 | 5.0 | 11.0 | 0.00 | 0.03 | 0.00 | 81 | 1008.0 |
| 20260506002008 | 50 | 21 | 5.0 | 11.0 | 0.00 | 0.03 | 0.00 | 81 | 1008.1 |
| 20260506001553 | 51 | 30 | 5.0 | 10.0 | 0.00 | 0.03 | 0.00 | 81 | 1008.1 |
| 20260506001507 | 51 | 19 | 4.0 | 10.0 | 0.00 | 0.03 | 0.00 | 81 | 1008.1 |
| 20260506001059 | 51 | 27 | 5.0 | 10.0 | 0.00 | 0.03 | 0.00 | 81 | 1008.1 |
| 20260506001030 | 51 | 18 | 5.0 | 10.0 | 0.00 | 0.03 | 0.00 | 81 | 1008.1 |
| 20260506000555 | 51 | 19 | 5.0 | 12.0 | 0.00 | 0.03 | 0.00 | 81 | 1008.1 |
| 20260506000507 | 51 | 19 | 5.0 | 12.0 | 0.00 | 0.03 | 0.00 | 81 | 1008.1 |
| 20260506000056 | 51 | 22 | 4.0 | 12.0 | 0.00 | 0.03 | 0.00 | 80 | 1008.2 |
| 20260506000009 | 51 | 21 | 4.0 | 12.0 | 0.00 | 0.03 | 0.00 | 80 | 1008.1 |
| 20260505235723 | 51 | 33 | 4.0 | 11.0 | 0.00 | 0.03 | 0.00 | 80 | 1008.2 |
| 20260505235632 | 51 | 28 | 4.0 | 11.0 | 0.00 | 0.03 | 0.00 | 80 | 1008.2 |
| 20260505235507 | 51 | 19 | 4.0 | 11.0 | 0.00 | 0.03 | 0.00 | 80 | 1008.2 |
| 20260505235007 | 51 | 17 | 4.0 | 11.0 | 0.00 | 0.03 | 0.00 | 80 | 1008.2 |
| 20260505234550 | 51 | 5 | 5.0 | 10.0 | 0.00 | 0.03 | 0.00 | 80 | 1008.2 |
| 20260505234507 | 51 | 19 | 5.0 | 10.0 | 0.00 | 0.03 | 0.00 | 80 | 1008.3 |
| 20260505234050 | 51 | 52 | 5.0 | 11.0 | 0.00 | 0.03 | 0.00 | 80 | 1008.3 |
| 20260505234007 | 51 | 16 | 5.0 | 11.0 | 0.00 | 0.03 | 0.00 | 80 | 1008.3 |
| 20260505233628 | 51 | 23 | 4.0 | 10.0 | 0.00 | 0.03 | 0.00 | 79 | 1008.3 |
| 20260505233601 | 51 | 5 | 4.0 | 11.0 | 0.00 | 0.03 | 0.00 | 79 | 1008.4 |
| 20260505233507 | 51 | 15 | 4.0 | 11.0 | 0.00 | 0.03 | 0.00 | 79 | 1008.3 |
| 20260505233007 | 51 | 17 | 4.0 | 10.0 | 0.00 | 0.03 | 0.00 | 79 | 1008.4 |
| 20260505232606 | 51 | 348 | 5.0 | 14.0 | 0.00 | 0.03 | 0.00 | 79 | 1008.4 |
| 20260505232508 | 51 | 19 | 5.0 | 14.0 | 0.00 | 0.03 | 0.00 | 79 | 1008.4 |
| 20260505232052 | 51 | 26 | 5.0 | 14.0 | 0.00 | 0.03 | 0.00 | 79 | 1008.3 |
| 20260505232008 | 51 | 19 | 5.0 | 14.0 | 0.00 | 0.03 | 0.00 | 79 | 1008.3 |
| 20260505231542 | 51 | 5 | 4.0 | 10.0 | 0.00 | 0.03 | 0.00 | 79 | 1008.4 |
| 20260505231507 | 51 | 18 | 4.0 | 10.0 | 0.00 | 0.03 | 0.00 | 79 | 1008.4 |
| 20260505231050 | 51 | 19 | 4.0 | 10.0 | 0.00 | 0.03 | 0.00 | 79 | 1008.4 |
| 20260505231029 | 51 | 18 | 4.0 | 10.0 | 0.00 | 0.03 | 0.00 | 79 | 1008.5 |
| 20260505230549 | 51 | 57 | 4.0 | 10.0 | 0.00 | 0.03 | 0.00 | 79 | 1008.3 |
| 20260505230507 | 51 | 20 | 4.0 | 10.0 | 0.00 | 0.03 | 0.00 | 79 | 1008.3 |
| 20260505230115 | 51 | 9 | 4.0 | 9.0 | 0.00 | 0.03 | 0.00 | 79 | 1008.4 |
| 20260505230008 | 52 | 20 | 3.0 | 9.0 | 0.00 | 0.03 | 0.00 | 79 | 1008.4 |
| 20260505225542 | 51 | 25 | 4.0 | 9.0 | 0.00 | 0.03 | 0.00 | 78 | 1008.4 |
| 20260505225528 | 52 | 16 | 4.0 | 9.0 | 0.00 | 0.03 | 0.00 | 78 | 1008.4 |
| 20260505225043 | 51 | 11 | 4.0 | 9.0 | 0.00 | 0.03 | 0.00 | 78 | 1008.4 |
| 20260505225008 | 52 | 15 | 4.0 | 9.0 | 0.00 | 0.03 | 0.00 | 78 | 1008.4 |
| 20260505224541 | 52 | 9 | 4.0 | 8.0 | 0.00 | 0.03 | 0.00 | 78 | 1008.5 |
| 20260505224507 | 52 | 16 | 4.0 | 8.0 | 0.00 | 0.03 | 0.00 | 78 | 1008.5 |
| 20260505224049 | 52 | 355 | 5.0 | 12.0 | 0.00 | 0.03 | 0.00 | 78 | 1008.6 |
| 20260505224007 | 52 | 17 | 5.0 | 12.0 | 0.00 | 0.03 | 0.00 | 78 | 1008.6 |
| 20260505223540 | 52 | 13 | 6.0 | 12.0 | 0.00 | 0.03 | 0.00 | 78 | 1008.6 |
| 20260505223507 | 52 | 16 | 6.0 | 12.0 | 0.00 | 0.03 | 0.00 | 78 | 1008.7 |
| 20260505223046 | 52 | 22 | 5.0 | 12.0 | 0.00 | 0.03 | 0.00 | 77 | 1008.6 |
| 20260505223029 | 52 | 18 | 5.0 | 12.0 | 0.00 | 0.03 | 0.00 | 77 | 1008.6 |
| 20260505222544 | 52 | 15 | 5.0 | 12.0 | 0.00 | 0.03 | 0.00 | 77 | 1008.7 |
| 20260505222528 | 52 | 19 | 5.0 | 12.0 | 0.00 | 0.03 | 0.00 | 77 | 1008.7 |
| 20260505222257 | 52 | 0 | 4.0 | 10.0 | 0.00 | 0.03 | 0.00 | 77 | 1008.7 |
| 20260505222131 | 52 | 25 | 4.0 | 9.0 | 0.00 | 0.03 | 0.00 | 77 | 1008.6 |
| 20260505222029 | 52 | 17 | 4.0 | 9.0 | 0.00 | 0.03 | 0.00 | 77 | 1008.7 |
| 20260505221507 | 52 | 16 | 5.0 | 10.0 | 0.00 | 0.03 | 0.00 | 77 | 1008.7 |
| 20260505221036 | 52 | 25 | 5.0 | 10.0 | 0.00 | 0.04 | 0.00 | 77 | 1008.6 |
| 20260505221008 | 52 | 14 | 5.0 | 10.0 | 0.00 | 0.04 | 0.00 | 77 | 1008.7 |
| 20260505220545 | 52 | 329 | 4.0 | 10.0 | 0.00 | 0.04 | 0.00 | 77 | 1008.7 |
| 20260505220530 | 52 | 15 | 4.0 | 10.0 | 0.00 | 0.04 | 0.00 | 77 | 1008.7 |
| 20260505220107 | 52 | 21 | 4.0 | 10.0 | 0.00 | 0.04 | 0.00 | 77 | 1008.7 |
| 20260505220033 | 52 | 16 | 3.0 | 10.0 | 0.00 | 0.04 | 0.00 | 77 | 1008.8 |
| 20260505215758 | 52 | 17 | 4.0 | 9.0 | 0.00 | 0.04 | 0.00 | 77 | 1008.7 |
| 20260505215750 | 52 | 0 | 4.0 | 11.0 | 0.00 | 0.04 | 0.00 | 77 | 1008.8 |
| 20260505215621 | 52 | 48 | 3.0 | 8.0 | 0.00 | 0.04 | 0.00 | 77 | 1008.8 |
| 20260505215507 | 52 | 16 | 3.0 | 8.0 | 0.00 | 0.04 | 0.04 | 77 | 1008.8 |
| 20260505215007 | 52 | 17 | 4.0 | 9.0 | 0.00 | 0.04 | 0.04 | 77 | 1008.8 |
| 20260505214508 | 52 | 17 | 4.0 | 11.0 | 0.00 | 0.04 | 0.04 | 77 | 1008.8 |
| 20260505214035 | 52 | 21 | 4.0 | 11.0 | 0.00 | 0.04 | 0.00 | 77 | 1008.9 |
| 20260505214008 | 52 | 19 | 4.0 | 11.0 | 0.00 | 0.04 | 0.04 | 77 | 1008.9 |
| 20260505213532 | 53 | 338 | 4.0 | 9.0 | 0.00 | 0.04 | 0.00 | 77 | 1008.8 |
| 20260505213529 | 52 | 16 | 4.0 | 9.0 | 0.00 | 0.04 | 0.04 | 77 | 1008.8 |
| 20260505213033 | 53 | 30 | 4.0 | 9.0 | 0.00 | 0.04 | 0.00 | 77 | 1008.9 |
| 20260505213008 | 53 | 15 | 4.0 | 9.0 | 0.00 | 0.04 | 0.04 | 77 | 1008.9 |
| 20260505212812 | 53 | 17 | 3.0 | 6.0 | 0.00 | 0.04 | 0.00 | 78 | 1008.8 |
| 20260505212638 | 53 | 346 | 3.0 | 9.0 | 0.00 | 0.04 | 0.00 | 77 | 1008.8 |
| 20260505212507 | 53 | 18 | 3.0 | 9.0 | 0.00 | 0.04 | 0.04 | 77 | 1008.8 |
| 20260505212008 | 53 | 20 | 3.0 | 7.0 | 0.00 | 0.04 | 0.04 | 78 | 1008.9 |
| 20260505211536 | 53 | 28 | 3.0 | 7.0 | 0.00 | 0.04 | 0.00 | 78 | 1008.9 |
| 20260505211507 | 53 | 19 | 3.0 | 7.0 | 0.00 | 0.04 | 0.04 | 78 | 1008.9 |
| 20260505211044 | 53 | 63 | 4.0 | 9.0 | 0.00 | 0.04 | 0.00 | 78 | 1008.9 |
| 20260505211008 | 53 | 15 | 4.0 | 9.0 | 0.00 | 0.04 | 0.04 | 78 | 1008.9 |
| 20260505210741 | 53 | 18 | 3.0 | 7.0 | 0.00 | 0.04 | 0.00 | 78 | 1008.9 |
| 20260505210612 | 53 | 16 | 4.0 | 9.0 | 0.00 | 0.04 | 0.00 | 78 | 1008.8 |
| 20260505210507 | 53 | 16 | 3.0 | 9.0 | 0.00 | 0.04 | 0.04 | 78 | 1008.9 |
| 20260505210009 | 53 | 19 | 3.0 | 6.0 | 0.00 | 0.04 | 0.04 | 77 | 1008.9 |
| 20260505205818 | 53 | 22 | 4.0 | 9.0 | 0.00 | 0.04 | 0.00 | 77 | 1008.9 |
| 20260505205617 | 53 | 0 | 3.0 | 8.0 | 0.00 | 0.04 | 0.00 | 77 | 1008.9 |
| 20260505205528 | 53 | 21 | 3.0 | 8.0 | 0.00 | 0.04 | 0.04 | 77 | 1008.9 |
| 20260505205009 | 53 | 21 | 4.0 | 9.0 | 0.00 | 0.04 | 0.04 | 77 | 1009.0 |
| 20260505204538 | 53 | 27 | 4.0 | 9.0 | 0.00 | 0.04 | 0.00 | 77 | 1008.9 |
| 20260505204507 | 53 | 20 | 4.0 | 9.0 | 0.00 | 0.04 | 0.04 | 77 | 1008.9 |
| 20260505204312 | 53 | 27 | 5.0 | 9.0 | 0.00 | 0.05 | 0.00 | 76 | 1009.0 |
| 20260505204113 | 53 | 22 | 3.0 | 9.0 | 0.00 | 0.04 | 0.00 | 77 | 1008.9 |
| 20260505204008 | 53 | 20 | 3.0 | 9.0 | 0.00 | 0.04 | 0.04 | 77 | 1009.0 |
| 20260505203552 | 53 | 24 | 3.0 | 8.0 | 0.00 | 0.04 | 0.00 | 77 | 1009.0 |
| 20260505203508 | 53 | 23 | 3.0 | 8.0 | 0.00 | 0.04 | 0.04 | 77 | 1009.0 |
| 20260505203254 | 53 | 19 | 3.0 | 8.0 | 0.00 | 0.04 | 0.00 | 77 | 1009.0 |
| 20260505203008 | 53 | 26 | 3.0 | 9.0 | 0.00 | 0.04 | 0.04 | 77 | 1009.0 |
| 20260505202928 | 53 | 13 | 4.0 | 9.0 | 0.00 | 0.06 | 0.00 | 76 | 1009.0 |
| 20260505202630 | 53 | 59 | 4.0 | 9.0 | 0.00 | 0.05 | 0.00 | 76 | 1008.9 |
| 20260505202509 | 53 | 24 | 4.0 | 9.0 | 0.00 | 0.05 | 0.04 | 76 | 1009.0 |
| 20260505202028 | 53 | 23 | 5.0 | 9.0 | 0.00 | 0.05 | 0.04 | 76 | 1009.0 |
| 20260505201507 | 54 | 23 | 4.0 | 9.0 | 0.00 | 0.06 | 0.04 | 76 | 1009.0 |
| 20260505201032 | 53 | 14 | 3.0 | 9.0 | 0.00 | 0.07 | 0.00 | 76 | 1009.0 |
| 20260505201008 | 54 | 22 | 3.0 | 9.0 | 0.00 | 0.07 | 0.04 | 76 | 1009.0 |
| 20260505200549 | 54 | 19 | 4.0 | 12.0 | 0.00 | 0.08 | 0.00 | 76 | 1009.0 |
| 20260505200528 | 54 | 21 | 4.0 | 12.0 | 0.00 | 0.08 | 0.04 | 76 | 1009.0 |
| 20260505200054 | 54 | 340 | 5.0 | 12.0 | 0.00 | 0.08 | 0.00 | 75 | 1008.9 |
| 20260505200029 | 54 | 22 | 5.0 | 12.0 | 0.00 | 0.08 | 0.04 | 75 | 1009.0 |
| 20260505195538 | 54 | 27 | 5.0 | 12.0 | 0.00 | 0.08 | 0.00 | 75 | 1008.8 |
| 20260505195510 | 54 | 22 | 5.0 | 12.0 | 0.00 | 0.08 | 0.04 | 75 | 1008.9 |
| 20260505195041 | 54 | 42 | 4.0 | 10.0 | 0.00 | 0.08 | 0.00 | 75 | 1008.8 |
| 20260505195007 | 54 | 22 | 4.0 | 10.0 | 0.00 | 0.08 | 0.04 | 75 | 1008.8 |
| 20260505194539 | 54 | 34 | 4.0 | 9.0 | 0.00 | 0.08 | 0.00 | 75 | 1008.9 |
| 20260505194507 | 54 | 25 | 4.0 | 9.0 | 0.00 | 0.08 | 0.04 | 75 | 1008.9 |
| 20260505194040 | 54 | 21 | 5.0 | 11.0 | 0.00 | 0.08 | 0.00 | 75 | 1008.8 |
| 20260505194008 | 54 | 23 | 5.0 | 11.0 | 0.00 | 0.08 | 0.04 | 75 | 1008.8 |
| 20260505193526 | 55 | 25 | 4.0 | 11.0 | 0.00 | 0.08 | 0.00 | 75 | 1008.8 |
| 20260505193507 | 54 | 22 | 4.0 | 11.0 | 0.00 | 0.08 | 0.04 | 75 | 1008.8 |
| 20260505193032 | 55 | 38 | 4.0 | 10.0 | 0.00 | 0.08 | 0.00 | 75 | 1008.7 |
| 20260505193028 | 55 | 27 | 4.0 | 10.0 | 0.00 | 0.08 | 0.04 | 75 | 1008.7 |
| 20260505192538 | 55 | 355 | 5.0 | 12.0 | 0.00 | 0.08 | 0.00 | 75 | 1008.7 |
| 20260505192528 | 55 | 26 | 5.0 | 12.0 | 0.00 | 0.08 | 0.04 | 75 | 1008.8 |
| 20260505192035 | 55 | 28 | 6.0 | 12.0 | 0.00 | 0.08 | 0.00 | 75 | 1008.7 |
| 20260505192007 | 55 | 23 | 6.0 | 12.0 | 0.00 | 0.08 | 0.04 | 75 | 1008.7 |
| 20260505191533 | 55 | 21 | 4.0 | 10.0 | 0.00 | 0.08 | 0.00 | 76 | 1008.6 |
| 20260505191507 | 55 | 22 | 4.0 | 10.0 | 0.00 | 0.08 | 0.04 | 76 | 1008.6 |
| 20260505191317 | 55 | 5 | 3.0 | 6.0 | 0.00 | 0.08 | 0.00 | 78 | 1008.5 |
| 20260505191109 | 55 | 24 | 3.0 | 10.0 | 0.00 | 0.08 | 0.00 | 77 | 1008.6 |
| 20260505191009 | 55 | 26 | 3.0 | 10.0 | 0.00 | 0.08 | 0.04 | 77 | 1008.6 |
| 20260505190507 | 55 | 28 | 3.0 | 6.0 | 0.00 | 0.08 | 0.04 | 78 | 1008.5 |
| 20260505190259 | 56 | 51 | 2.0 | 5.0 | 0.00 | 0.08 | 0.00 | 78 | 1008.5 |
| 20260505190114 | 56 | 9 | 3.0 | 6.0 | 0.00 | 0.08 | 0.00 | 78 | 1008.6 |
| 20260505190008 | 56 | 31 | 3.0 | 6.0 | 0.00 | 0.08 | 0.04 | 78 | 1008.6 |
| 20260505185542 | 56 | 45 | 2.0 | 5.0 | 0.00 | 0.08 | 0.00 | 78 | 1008.5 |
| 20260505185507 | 56 | 31 | 2.0 | 5.0 | 0.00 | 0.08 | 0.04 | 78 | 1008.5 |